User: anonymous   Login
Location: Unspecified
(0.0000°N, 0.0000°E)
Time: 06:17:03
(UTC+00:00)
Language:

Courier 1B Rocket - Orbit

View from above orbital plane
View from above orbital plane
View from above satellite
View from above satellite

Ground track
Ground track

The orbit data is extracted from the following two-line orbital elements,

1    59U 60013B   17080.52134257 +.00000082 +00000-0 -46444-5 0  9997
2    59 028.2472 179.6710 0189332 069.2992 292.7740 13.52948512786658
Epoch (UTC): 21 March 2017 12:30:43
Eccentricity: 0.0189332
inclination: 28.2472°
perigee height: 920 km
apogee height: 1202 km
right ascension of ascending node: 179.6710°
argument of perigee: 69.2992°
revolutions per day: 13.52948512
mean anomaly at epoch: 292.7740°
orbit number at epoch: 78665

The dashed part of the orbit path shows where the satellite is in the earth's shadow,  

DLR